Time,TemperatureF,DewpointF,PressureIn,WindDirection,WindDirectionDegrees,WindSpeedMPH,WindSpeedGustMPH,Humidity,HourlyPrecipIn,Conditions,Clouds,dailyrainin,SolarRadiationWatts/m^2,SoftwareType,DateUTC
2013-02-11 00:21:00,30.0,29.0,-100.00,SE,130,2.0,6.0,98,0.00,,,0.25,0.000000,,2013-02-11 08:21:00,
2013-02-11 00:31:00,30.0,29.0,-100.00,SE,130,2.0,6.0,98,0.00,,,0.25,0.000000,,2013-02-11 08:31:00,
2013-02-11 00:42:00,30.0,29.0,-100.00,SE,130,2.0,6.0,98,0.00,,,0.25,0.000000,,2013-02-11 08:42:00,
2013-02-11 00:52:00,30.0,29.0,-100.00,SE,130,2.0,6.0,98,0.00,,,0.25,0.000000,,2013-02-11 08:52:00,
2013-02-11 01:12:00,30.0,29.0,-100.00,East,95,0.0,6.0,98,0.00,,,-99.99,0.000000,,2013-02-11 09:12:00,
2013-02-11 01:21:00,30.0,29.0,-100.00,East,95,0.0,6.0,98,0.00,,,-99.99,0.000000,,2013-02-11 09:21:00,
2013-02-11 01:31:00,30.0,29.0,-100.00,East,95,0.0,6.0,98,0.00,,,-99.99,0.000000,,2013-02-11 09:31:00,
2013-02-11 01:41:00,30.0,29.0,-100.00,East,95,0.0,6.0,98,0.00,,,-99.99,0.000000,,2013-02-11 09:41:00,
2013-02-11 01:51:00,30.0,29.0,-100.00,East,95,0.0,6.0,98,0.00,,,-99.99,0.000000,,2013-02-11 09:51:00,
2013-02-11 02:21:00,30.0,29.0,-100.00,East,99,0.0,3.0,96,0.00,,,0.25,0.000000,,2013-02-11 10:21:00,
2013-02-11 02:31:00,30.0,29.0,-100.00,East,99,0.0,3.0,96,0.00,,,0.25,0.000000,,2013-02-11 10:31:00,
2013-02-11 02:41:00,30.0,29.0,-100.00,East,99,0.0,3.0,96,0.00,,,0.25,0.000000,,2013-02-11 10:41:00,
2013-02-11 02:51:00,30.0,29.0,-100.00,East,99,0.0,3.0,96,0.00,,,0.25,0.000000,,2013-02-11 10:51:00,
2013-02-11 03:22:00,29.0,27.0,-100.00,SE,124,0.0,7.0,92,0.00,,,0.25,0.000000,,2013-02-11 11:22:00,
2013-02-11 03:32:00,29.0,27.0,-100.00,SE,124,0.0,7.0,92,0.00,,,0.25,0.000000,,2013-02-11 11:32:00,
2013-02-11 03:42:00,29.0,27.0,-100.00,SE,124,0.0,7.0,92,0.00,,,0.25,0.000000,,2013-02-11 11:42:00,
2013-02-11 03:52:00,29.0,27.0,-100.00,SE,124,0.0,7.0,92,0.00,,,0.25,0.000000,,2013-02-11 11:52:00,
2013-02-11 04:22:00,29.0,27.0,-100.00,ESE,121,0.0,6.0,91,0.00,,,-99.99,0.000000,,2013-02-11 12:22:00,
2013-02-11 04:31:00,29.0,27.0,-100.00,ESE,121,0.0,6.0,91,0.00,,,-99.99,0.000000,,2013-02-11 12:31:00,
2013-02-11 04:42:00,29.0,27.0,-100.00,ESE,121,0.0,6.0,91,0.00,,,-99.99,0.000000,,2013-02-11 12:42:00,
2013-02-11 04:52:00,29.0,27.0,-100.00,ESE,121,0.0,6.0,91,0.00,,,-99.99,0.000000,,2013-02-11 12:52:00,
2013-02-11 05:21:00,29.0,27.0,-100.00,ESE,118,0.0,4.0,94,0.00,,,-99.99,0.000000,,2013-02-11 13:21:00,
2013-02-11 05:32:00,29.0,27.0,-100.00,ESE,118,0.0,4.0,94,0.00,,,-99.99,0.000000,,2013-02-11 13:32:00,
2013-02-11 05:41:00,29.0,27.0,-100.00,ESE,118,0.0,4.0,94,0.00,,,-99.99,0.000000,,2013-02-11 13:41:00,
2013-02-11 05:51:00,29.0,27.0,-100.00,ESE,118,0.0,4.0,94,0.00,,,-99.99,0.000000,,2013-02-11 13:51:00,
2013-02-11 06:21:00,28.0,27.0,-100.00,SE,128,2.0,5.0,96,0.00,,,-99.99,0.000000,,2013-02-11 14:21:00,
2013-02-11 06:32:00,28.0,27.0,-100.00,SE,128,2.0,5.0,96,0.00,,,-99.99,0.000000,,2013-02-11 14:32:00,
2013-02-11 06:42:00,28.0,27.0,-100.00,SE,128,2.0,5.0,96,0.00,,,-99.99,0.000000,,2013-02-11 14:42:00,
2013-02-11 06:52:00,28.0,27.0,-100.00,SE,128,2.0,5.0,96,0.00,,,-99.99,0.000000,,2013-02-11 14:52:00,
2013-02-11 07:22:00,27.0,27.0,-100.00,SE,124,2.0,5.0,98,0.00,,,0.25,1.000000,,2013-02-11 15:22:00,
2013-02-11 07:32:00,27.0,27.0,-100.00,SE,124,2.0,5.0,98,0.00,,,0.25,1.000000,,2013-02-11 15:32:00,
2013-02-11 07:42:00,27.0,27.0,-100.00,SE,124,2.0,5.0,98,0.00,,,0.25,1.000000,,2013-02-11 15:42:00,
2013-02-11 07:51:00,27.0,27.0,-100.00,SE,124,2.0,5.0,98,0.00,,,0.25,1.000000,,2013-02-11 15:51:00,
2013-02-11 08:22:00,33.0,27.0,-100.00,ESE,123,2.0,5.0,79,0.00,,,0.25,66.000000,,2013-02-11 16:22:00,
2013-02-11 08:32:00,33.0,27.0,-100.00,ESE,123,2.0,5.0,79,0.00,,,0.25,66.000000,,2013-02-11 16:32:00,
2013-02-11 08:42:00,33.0,27.0,-100.00,ESE,123,2.0,5.0,79,0.00,,,0.25,66.000000,,2013-02-11 16:42:00,
2013-02-11 08:52:00,33.0,27.0,-100.00,ESE,123,2.0,5.0,79,0.00,,,0.25,66.000000,,2013-02-11 16:52:00,
2013-02-11 09:21:00,42.0,28.0,-100.00,ESE,119,1.0,7.0,58,0.00,,,0.25,330.000000,,2013-02-11 17:21:00,
2013-02-11 10:21:00,48.0,28.0,-100.00,SW,236,0.0,4.0,46,-99.99,,,0.25,522.000000,,2013-02-11 18:21:00,
2013-02-11 11:41:00,49.0,29.0,-100.00,West,266,0.0,6.0,45,-99.99,,,-99.99,714.000000,,2013-02-11 19:41:00,
2013-02-11 11:51:00,49.0,29.0,-100.00,West,266,0.0,6.0,45,-99.99,,,-99.99,714.000000,,2013-02-11 19:51:00,
2013-02-11 12:21:00,50.0,28.0,-100.00,West,277,4.0,8.0,43,0.05,,,0.26,819.000000,,2013-02-11 20:21:00,
2013-02-11 12:31:00,50.0,28.0,-100.00,West,277,4.0,8.0,43,0.05,,,0.26,819.000000,,2013-02-11 20:31:00,
2013-02-11 12:41:00,50.0,28.0,-100.00,West,277,4.0,8.0,43,0.05,,,0.26,819.000000,,2013-02-11 20:41:00,
2013-02-11 12:52:00,50.0,28.0,-100.00,West,277,4.0,8.0,43,0.05,,,0.26,819.000000,,2013-02-11 20:52:00,
2013-02-11 13:21:00,46.0,29.0,-100.00,West,275,3.0,9.0,52,0.05,,,0.26,694.000000,,2013-02-11 21:21:00,
2013-02-11 13:31:00,46.0,29.0,-100.00,West,275,3.0,9.0,52,0.05,,,0.26,694.000000,,2013-02-11 21:31:00,
2013-02-11 13:41:00,46.0,29.0,-100.00,West,275,3.0,9.0,52,0.05,,,0.26,694.000000,,2013-02-11 21:41:00,
2013-02-11 13:51:00,46.0,29.0,-100.00,West,275,3.0,9.0,52,0.05,,,0.26,694.000000,,2013-02-11 21:51:00,
2013-02-11 14:21:00,43.0,28.0,-100.00,WSW,240,5.0,9.0,54,0.02,,,0.24,252.000000,,2013-02-11 22:21:00,
2013-02-11 14:32:00,43.0,28.0,-100.00,WSW,240,5.0,9.0,54,0.02,,,0.24,252.000000,,2013-02-11 22:32:00,
2013-02-11 14:41:00,43.0,28.0,-100.00,WSW,240,5.0,9.0,54,0.02,,,0.24,252.000000,,2013-02-11 22:41:00,
2013-02-11 14:52:00,43.0,28.0,-100.00,WSW,240,5.0,9.0,54,0.02,,,0.24,252.000000,,2013-02-11 22:52:00,
2013-02-11 15:21:00,47.0,28.0,-100.00,West,262,2.0,9.0,48,0.02,,,0.24,332.000000,,2013-02-11 23:21:00,
2013-02-11 15:32:00,47.0,28.0,-100.00,West,262,2.0,9.0,48,0.02,,,0.24,332.000000,,2013-02-11 23:32:00,
2013-02-11 15:41:00,47.0,28.0,-100.00,West,262,2.0,9.0,48,0.02,,,0.24,332.000000,,2013-02-11 23:41:00,
2013-02-11 15:52:00,47.0,28.0,-100.00,West,262,2.0,9.0,48,0.02,,,0.24,332.000000,,2013-02-11 23:52:00,
2013-02-11 16:21:00,45.0,27.0,-100.00,West,278,0.0,6.0,50,0.02,,,0.24,287.000000,,2013-02-12 00:21:00,
2013-02-11 16:32:00,45.0,27.0,-100.00,West,278,0.0,6.0,50,0.02,,,0.24,287.000000,,2013-02-12 00:32:00,
2013-02-11 16:42:00,45.0,27.0,-100.00,West,278,0.0,6.0,50,0.02,,,0.24,287.000000,,2013-02-12 00:42:00,
2013-02-11 16:51:00,45.0,27.0,-100.00,West,278,0.0,6.0,50,0.02,,,0.24,287.000000,,2013-02-12 00:51:00,
2013-02-11 17:21:00,45.0,29.0,-100.00,WSW,248,4.0,8.0,54,0.02,,,0.24,163.000000,,2013-02-12 01:21:00,
2013-02-11 17:31:00,45.0,29.0,-100.00,WSW,248,4.0,8.0,54,0.02,,,0.24,163.000000,,2013-02-12 01:31:00,
2013-02-11 17:41:00,45.0,29.0,-100.00,WSW,248,4.0,8.0,54,0.02,,,0.24,163.000000,,2013-02-12 01:41:00,
2013-02-11 17:51:00,45.0,29.0,-100.00,WSW,248,4.0,8.0,54,0.02,,,0.24,163.000000,,2013-02-12 01:51:00,
2013-02-11 18:21:00,37.0,31.0,-100.00,ESE,105,0.0,7.0,78,0.00,,,0.24,23.000000,,2013-02-12 02:21:00,
2013-02-11 18:31:00,37.0,31.0,-100.00,ESE,105,0.0,7.0,78,0.00,,,0.24,23.000000,,2013-02-12 02:31:00,
2013-02-11 18:41:00,37.0,31.0,-100.00,ESE,105,0.0,7.0,78,0.00,,,0.24,23.000000,,2013-02-12 02:41:00,
2013-02-11 18:52:00,37.0,31.0,-100.00,ESE,105,0.0,7.0,78,0.00,,,0.24,23.000000,,2013-02-12 02:52:00,
2013-02-11 19:21:00,32.0,30.0,-100.00,East,99,0.0,4.0,94,0.00,,,0.23,0.000000,,2013-02-12 03:21:00,
2013-02-11 19:31:00,32.0,30.0,-100.00,East,99,0.0,4.0,94,0.00,,,0.23,0.000000,,2013-02-12 03:31:00,
2013-02-11 19:41:00,32.0,30.0,-100.00,East,99,0.0,4.0,94,0.00,,,0.23,0.000000,,2013-02-12 03:41:00,
2013-02-11 19:51:00,32.0,30.0,-100.00,East,99,0.0,4.0,94,0.00,,,0.23,0.000000,,2013-02-12 03:51:00,
2013-02-11 20:21:00,33.0,29.0,-100.00,ESE,106,0.0,6.0,85,0.00,,,0.23,0.000000,,2013-02-12 04:21:00,
2013-02-11 20:31:00,33.0,29.0,-100.00,ESE,106,0.0,6.0,85,0.00,,,0.23,0.000000,,2013-02-12 04:31:00,
2013-02-11 20:41:00,33.0,29.0,-100.00,ESE,106,0.0,6.0,85,0.00,,,0.23,0.000000,,2013-02-12 04:41:00,
2013-02-11 20:51:00,33.0,29.0,-100.00,ESE,106,0.0,6.0,85,0.00,,,0.23,0.000000,,2013-02-12 04:51:00,
2013-02-11 21:21:00,36.0,26.0,-100.00,ESE,121,4.0,10.0,68,0.00,,,0.23,0.000000,,2013-02-12 05:21:00,
2013-02-11 21:31:00,36.0,26.0,-100.00,ESE,121,4.0,10.0,68,0.00,,,0.23,0.000000,,2013-02-12 05:31:00,
2013-02-11 21:42:00,36.0,26.0,-100.00,ESE,121,4.0,10.0,68,0.00,,,0.23,0.000000,,2013-02-12 05:42:00,
2013-02-11 21:52:00,36.0,26.0,-100.00,ESE,121,4.0,10.0,68,0.00,,,0.23,0.000000,,2013-02-12 05:52:00,
2013-02-11 22:12:00,33.0,24.0,-100.00,ESE,116,0.0,9.0,70,0.00,,,0.23,0.000000,,2013-02-12 06:12:00,
2013-02-11 22:21:00,33.0,24.0,-100.00,ESE,116,0.0,9.0,70,0.00,,,0.23,0.000000,,2013-02-12 06:21:00,
2013-02-11 22:31:00,33.0,24.0,-100.00,ESE,116,0.0,9.0,70,0.00,,,0.23,0.000000,,2013-02-12 06:31:00,
2013-02-11 22:42:00,33.0,24.0,-100.00,ESE,116,0.0,9.0,70,0.00,,,0.23,0.000000,,2013-02-12 06:42:00,
2013-02-11 22:51:00,33.0,24.0,-100.00,ESE,116,0.0,9.0,70,0.00,,,0.23,0.000000,,2013-02-12 06:51:00,
2013-02-11 23:21:00,32.0,25.0,-100.00,SE,129,2.0,6.0,74,0.00,,,0.23,0.000000,,2013-02-12 07:21:00,
2013-02-11 23:31:00,32.0,25.0,-100.00,SE,129,2.0,6.0,74,0.00,,,0.23,0.000000,,2013-02-12 07:31:00,
2013-02-11 23:41:00,32.0,25.0,-100.00,SE,129,2.0,6.0,74,0.00,,,0.23,0.000000,,2013-02-12 07:41:00,
2013-02-11 23:51:00,32.0,25.0,-100.00,SE,129,2.0,6.0,74,0.00,,,0.23,0.000000,,2013-02-12 07:51:00,